Regional Weather Roundup
Issued by NWS San Angelo, TX

Home | Current Version | Previous Version | Text Only | Print | Product List | Glossary Off
Versions: 1 2 3 4 5 6 7 8 9 10 11 12 13 14 15 16 17 18 19 20 21 22 23 24 25 26 27 28 29 30 31 32 33 34 35 36 37 38 39 40 41 42 43 44 45 46 47 48 49 50

000
ASUS44 KSJT 141410
RWRSJT
WEST CENTRAL TEXAS REGIONAL WEATHER ROUNDUP
NATIONAL WEATHER SERVICE SAN ANGELO TX
800 AM CST THU DEC 14 2017

NOTE: "FAIR" INDICATES FEW OR NO CLOUDS BELOW 12,000 FEET WITH NO
SIGNIFICANT WEATHER AND/OR OBSTRUCTIONS TO VISIBILITY.

TXZ049-054-064>066-071>073-076>078-098-099-113-114-127-128-139-140-
154-155-168>170-141500
...LOCATIONS ACROSS WEST CENTRAL TEXAS...

CITY           SKY/WX    TMP DP  RH WIND       PRES   REMARKS
SAN ANGELO     PTCLDY    31  26  82 CALM      30.00R
ABILENE        CLEAR     31  23  72 CALM      30.05R
DYESS AFB      CLEAR     33  20  58 W7        30.06R WCI  27
JUNCTION       CLOUDY    37  34  89 N3        30.00R
SWEETWATER     CLEAR     36  20  53 N6        30.09R WCI  31
BROWNWOOD      CLEAR     37  25  60 NW7       30.01R WCI  32
COLEMAN          N/A     41  23  49 N14       30.01R WCI  34
SONORA         CLOUDY    32  30  93 CALM      30.04R
OZONA          FAIR      30  30 100 CALM      30.02R
BRADY          NOT AVBL
$$

TEXAS PANHANDLE/OKLAHOMA PANHANDLE

CITY           SKY/WX    TMP DP  RH WIND       PRES   REMARKS
AMARILLO       CLOUDY    26  17  68 N9        30.16R WCI  17
BORGER         PTCLDY    37  20  50 N8        30.18R WCI  31
CANADIAN       MOCLDY    39  23  53 N7        30.16R WCI  34
DALHART        CLEAR     31  18  58 N9        30.20R WCI  23
DUMAS          MOSUNNY   30  17  58 N6        30.17R WCI  24
GUYMON         NOT AVBL
HEREFORD       CLOUDY    21  14  73 MISG      30.16R
PAMPA          CLOUDY    33  21  60 N8        30.17R WCI  27
PERRYTON       PTCLDY    39  22  50 N12       30.15R WCI  32
$$

SOUTHERN PANHANDLE/SOUTH PLAINS/ROLLING PLAINS

CITY           SKY/WX    TMP DP  RH WIND       PRES   REMARKS
LUBBOCK        PTCLDY    31  16  54 NE13      30.09R WCI  21
SNYDER         CLEAR     38  20  49 N12       30.07R WCI  30
CHILDRESS      CLEAR     33  19  56 N7        30.13R WCI  27
SEMINOLE       SUNNY     35  18  50 NE8       30.08R WCI  28
$$

PERMIAN BASIN

CITY           SKY/WX    TMP DP  RH WIND       PRES   REMARKS
MIDLAND        CLEAR     33  23  66 N12       30.03R WCI  24
ODESSA         CLEAR     34  22  61 NE12      30.03R WCI  25
WINK           CLEAR     33  21  61 N10       30.02R WCI  25
$$

FAR WEST/SOUTHWEST MOUNTAINS/TRANS PECOS

CITY           SKY/WX    TMP DP  RH WIND       PRES   REMARKS
ALPINE         SUNNY     41  32  70 N6        30.09R WCI  37
DRYDEN           N/A     42  35  76 N5        29.96R WCI  39
EL PASO        PTCLDY    37  29  72 CALM      29.99R
FORT STOCKTON  NOT AVBL
GUADALUPE PASS CLOUDY    42  14  32 NE14      30.05R WCI  35
MARFA          NOT AVBL
PECOS          SUNNY     34  25  69 NW5       30.04R WCI  29
$$

DALLAS/FORT WORTH METROPLEX

CITY           SKY/WX    TMP DP  RH WIND       PRES   REMARKS
DFW AIRPORT    PTCLDY    48  31  51 N16       29.99R
FTW MEACHAM    CLEAR     46  26  45 N17G28    30.01R WCI  39
DAL-EXECUTIVE  CLEAR     44  29  55 NW10      29.98R WCI  39
GRAND PRAIRIE  NOT AVBL
ADDISON        PTCLDY    46  25  42 N15G21    30.01R
MESQUITE       SUNNY     46  32  57 N13       29.99R
LANCASTER      MOSUNNY   44  27  51 N8        29.99R WCI  39
$$

NORTH CENTRAL TEXAS

CITY           SKY/WX    TMP DP  RH WIND       PRES   REMARKS
SHRMAN/DENISON SUNNY     44  31  61 NE7       30.06R WCI  39
GAINESVILLE    CLEAR     37  25  62 N9        30.07R WCI  30
BRIDGEPORT     SUNNY     40  26  55 NE5       30.07R WCI  37
DENTON         CLEAR     42  27  55 N13       30.03R WCI  35
WAXAHACHIE     SUNNY     46  29  53 N9        29.98R
GRANBURY       SUNNY     40  26  56 W3        30.02R
$$

WESTERN NORTH TEXAS

CITY           SKY/WX    TMP DP  RH WIND       PRES   REMARKS
WICHITA FALLS  PTCLDY    36  25  64 N12       30.09R WCI  28
VERNON         SUNNY     37  21  51 N6        30.13R WCI  33
BRECKENRIDGE   SUNNY     35  23  61 N8        30.06R WCI  29
COMANCHE       CLEAR     40  25  54 NW8       30.02R WCI  35
$$

CENTRAL AND SOUTH CENTRAL TEXAS

CITY           SKY/WX    TMP DP  RH WIND       PRES   REMARKS
AUSTIN/BERGSTM CLOUDY    42  39  89 CALM      29.98R
WACO           CLOUDY    40  31  70 N7        29.96R WCI  35
HILLSBORO      SUNNY     44  30  58 N10       29.96R WCI  38
TEMPLE         CLOUDY    41  37  86 CALM      29.96R
KILLEEN-GRAY   CLEAR     48  30  49 W10       29.96R
FORT HOOD      CLOUDY    46  33  60 NW10      29.93R
GEORGETOWN     CLOUDY    44  38  79 W5        29.98R
LAGO VISTA     FAIR      47  38  69 W7        29.97S
SAN MARCOS     CLOUDY    43  39  86 NW5       30.01R
NEW BRAUNFELS  CLOUDY    42  38  85 N3        29.98R
RANDOLPH AFB   CLOUDY    44  38  81 N9        29.98R WCI  39
SAN ANTONIO    MOCLDY    45  39  79 NW3       29.98R
STINSON        CLOUDY    44  41  89 CALM      29.96R
PLEASANTON     NOT AVBL
LA GRANGE      CLOUDY    44  41  91 CALM      29.95S
GIDDINGS       CLOUDY    42  38  86 CALM      29.98R
$$

EAST TEXAS

CITY           SKY/WX    TMP DP  RH WIND       PRES   REMARKS
PARIS          CLEAR     41  28  60 N9        30.02R WCI  35
CLARKSVILLE    NOT AVBL
TYLER          CLOUDY    43  38  82 NE3       29.96R
LONGVIEW       CLOUDY    39  38  96 S3        29.96R
PALESTINE      CLOUDY    43  39  84 CALM      29.97R
NACOGDOCHES    CLOUDY    39  38  96 CALM      29.97R
$$

TEXAS HILL COUNTRY AND EDWARDS PLATEAU

CITY           SKY/WX    TMP DP  RH WIND       PRES   REMARKS
LLANO          CLOUDY    37  34  87 CALM      30.01R
HORSESHOE BAY  FAIR      43  38  80 CALM      29.98R
KERRVILLE      CLOUDY    38  35  87 CALM      30.00R
FREDERICKSBRG  CLOUDY    39  34  84 CALM      29.99R
ROCKSPRINGS    NOT AVBL
HONDO          MOCLDY    45  39  79 N8        29.97R
UVALDE         CLOUDY    43  39  84 NE3       29.97R
DEL RIO        CLOUDY    41  40  96 NW5       29.96R WCI  38
$$

SOUTHEAST TEXAS

CITY           SKY/WX    TMP DP  RH WIND       PRES   REMARKS
COLLEGE STN    CLOUDY    46  40  79 S5        29.96R
CALDWELL       CLOUDY    44  38  79 SW5       29.96S
CROCKETT         N/A     39  37  93 CALM      29.99R
BRENHAM        CLOUDY    46  41  83 CALM      29.98R
HUNTSVILLE     CLOUDY    50  39  66 SW6       29.95R
CONROE         PTCLDY    41  41 100 CALM      29.97R
HOUSTON BUSH   CLOUDY    46  44  93 CALM      29.97S
HOUSTON HOBBY  MOCLDY    45  44  97 S3        29.98R
PERLAND        PTCLDY    46  44  93 CALM      30.00R
WHARTON        PTSUNNY   43  41  93 CALM      29.99R
$$

THE UPPER TEXAS COAST

CITY           SKY/WX    TMP DP  RH WIND       PRES   REMARKS
ORANGE         MOSUNNY   43  43 100 CALM      30.00R
PORT ARTHUR    PTCLDY    44  41  89 CALM      29.98R
GALVESTON      PTCLDY    55  49  80 S6        29.99R
ANGLETON       CLOUDY    48  45  89 CALM      29.98R
BAY CITY       CLOUDY    47  46  95 CALM      29.99R
$$

TEXAS COASTAL BEND, RIO GRANDE PLAINS DEEP SOUTH TEXAS

CITY           SKY/WX    TMP DP  RH WIND       PRES   REMARKS
VICTORIA       PTCLDY    48  45  89 NE5       29.97S
BEEVILLE       FAIR      49  44  83 N3        29.97R
ROCKPORT       CLOUDY    53  49  86 N5        29.97R
PORT ARANSAS   NOT AVBL
PORT LAVACA    CLOUDY    48  46  91 NE5       29.97S
CORPUS CHRISTI CLOUDY    54  51  90 NE5       29.96R
KINGSVILLE NAS CLOUDY    52  51  97 N5        29.96R
COTULLA        CLOUDY    48  40  73 CALM      29.96R
LAREDO           N/A    N/A N/A N/A N9          N/A
BROWNSVILLE    CLOUDY    59  56  89 CALM      29.96R
PORT ISABEL    CLOUDY    56  54  93 SW3       29.95R
HEBBRONVILLE   CLOUDY    48  42  79 CALM      29.95S
MCALLEN        CLOUDY    55  51  86 S3        29.95R FOG
WESLACO        CLOUDY    54  52  94 CALM      29.94S
FALFURRIAS     CLOUDY    52  47  84 CALM      29.96R
EDINBURG       CLOUDY    51  49  92 CALM      29.95R
$$




USA.gov is the U.S. government's official web portal to all federal, state and local government web resources and services.